CST,Max TemperatureF,Mean TemperatureF,Min TemperatureF,Max Dew PointF,MeanDew PointF,Min DewpointF,Max Humidity, Mean Humidity, Min Humidity, Max Sea Level PressureIn, Mean Sea Level PressureIn, Min Sea Level PressureIn, Max VisibilityMiles, Mean VisibilityMiles, Min VisibilityMiles, Max Wind SpeedMPH, Mean Wind SpeedMPH, Max Gust SpeedMPH,PrecipitationIn, CloudCover, Events, WindDirDegrees
2012-12-1,53,44,35,46,38,32,87,82,76,30.05,29.84,29.73,5,3,0,20,12,24,0.00,7,Fog,179
2012-12-2,55,40,24,43,33,21,93,75,47,30.01,29.92,29.81,10,5,0,20,5,26,0.00,1,Fog,163
2012-12-3,59,46,33,55,40,27,94,76,51,29.99,29.76,29.59,10,6,1,23,14,31,0.00,3,,213
2012-12-4,39,28,17,28,19,9,81,64,45,30.40,30.20,29.99,10,10,10,17,6,23,0.00,0,,284
2012-12-5,44,30,15,28,17,9,80,54,36,30.40,30.17,29.90,10,10,10,26,10,39,0.00,2,,128
2012-12-6,44,38,33,37,31,25,81,67,53,30.01,29.90,29.84,10,10,7,25,17,33,0.10,4,Rain,265
2012-12-7,33,30,26,28,24,19,87,76,65,30.04,30.02,29.99,10,8,2,15,8,17,0.00,5,Snow,13
2012-12-8,35,30,26,30,26,21,93,80,75,30.06,30.01,29.96,10,7,2,16,7,23,0.00,6,,93
2012-12-9,33,28,23,32,30,18,93,89,80,29.98,29.86,29.77,10,3,0,22,12,28,0.09,8,Snow,102
2012-12-10,23,12,1,18,2,-4,86,75,67,29.98,29.93,29.84,10,9,4,24,13,31,0.00,4,Snow,254
2012-12-11,24,16,8,21,15,3,86,79,63,30.00,29.89,29.80,10,7,0,14,8,,0.00,7,Fog-Snow,207
2012-12-12,42,30,19,28,24,16,86,65,52,29.98,29.91,29.84,10,10,5,25,14,33,0.01,1,,166
2012-12-13,39,26,14,23,18,10,86,67,52,30.13,30.01,29.93,10,8,3,20,10,22,0.00,0,,207
2012-12-14,44,29,14,32,25,10,86,74,57,30.13,29.97,29.76,10,9,4,17,6,24,0.00,1,,113
2012-12-15,44,38,33,39,35,32,93,83,70,29.76,29.57,29.49,10,5,0,15,10,18,0.35,8,Fog-Rain-Snow,141
2012-12-16,33,28,23,32,22,19,93,87,80,29.82,29.74,29.59,7,4,0,16,12,21,0.00,8,Fog-Snow,292
2012-12-17,30,26,23,27,22,19,86,84,80,29.81,29.74,29.68,7,5,4,8,4,,0.00,8,Snow,45
2012-12-18,33,30,28,30,26,23,87,84,80,29.85,29.69,29.60,5,3,2,14,7,,0.00,8,Snow,94
2012-12-19,35,32,28,32,29,23,93,88,80,30.00,29.94,29.85,7,3,0,17,8,21,0.00,8,Fog-Snow,210
2012-12-20,30,22,12,27,17,7,86,79,73,30.06,29.90,29.82,7,4,1,30,19,41,0.00,7,Snow,326
2012-12-21,17,11,5,9,4,0,79,75,63,30.28,30.21,30.07,10,10,7,20,12,21,0.00,0,Snow,273
2012-12-22,28,19,10,18,11,3,86,72,59,30.19,30.04,29.95,10,10,7,12,6,,0.00,0,,184
2012-12-23,19,16,14,16,11,9,86,76,68,30.11,30.05,29.97,10,9,5,14,8,20,0.00,2,,19
2012-12-24,21,12,3,12,8,-4,79,72,63,30.27,30.09,29.97,10,10,5,16,8,20,0.00,4,Snow,337
2012-12-25,12,6,0,3,-3,-8,78,71,62,30.47,30.41,30.28,10,10,10,12,6,,0.00,0,,309
2012-12-26,19,11,3,9,3,-4,78,68,58,30.37,30.29,30.22,10,10,10,8,5,,0.00,1,,16
2012-12-27,24,16,8,19,12,0,80,75,67,30.23,30.18,30.11,10,7,1,10,5,,0.00,5,Snow,74
2012-12-28,24,18,12,19,17,9,86,80,73,30.11,30.03,29.97,10,5,1,10,7,,0.00,7,Snow,12
2012-12-29,19,11,0,16,7,-6,86,78,68,30.19,30.10,30.03,10,6,2,13,8,,0.00,5,Snow,250
2012-12-30,30,15,0,21,10,-6,86,74,64,30.20,30.06,29.91,10,8,1,17,6,,0.00,1,,180
2012-12-31,17,6,-4,12,2,-11,86,68,49,30.26,30.16,30.02,10,10,7,20,11,23,0.00,1,Snow,309